Location: Ponte Samoggia
(44.5667°N, 11.1333°E)
Time: 21:35:43
(UTC+00:00)

Nadezhda 1 Rocket - Pass Details

Date: 26 May 2022
Orbit: 940 x 1006 km, 83.0° (Epoch: 29 June)

Event Time Altitude Azimuth Distance (km) Brightness Sun altitude
Exits shadow 02:15:04 16° 215° (SW) 2,365 5.4 -12.2°
Maximum altitude 02:19:59 47° 284° (WNW) 1,298 4.5 -11.6°
Drops below altitude 10° 02:26:03 10° 357° (N) 2,746 7.0 -10.9°
Sets 02:28:40 0° 4° (N) 3,688 7.8 -10.5°
